Location: Festieux
(49.5227°N, 3.7558°E)
Time: 12:43:06
(UTC+00:00)

Daily predictions for brighter satellites

Satellite Brightness Start Highest point End
(mag) Time Altitude Azimuth Time Altitude Azimuth Time Altitude Azimuth
ADEOS Rocket 3.7 16:09:10 10° NNE 16:16:53 62° E 16:24:29 10° S
Cosmos 1125 Rocket 4.3 16:13:32 10° NNW 16:18:39 59° WSW 16:23:45 10° S
Cosmos 2221 3.3 16:15:26 10° SSW 16:19:41 56° WNW 16:23:56 10° N
H-2A R/B 3.0 16:17:27 10° NE 16:21:09 29° E 16:24:53 10° SSE
Cosmos 1980 4.0 16:20:07 10° SW 16:25:48 73° WNW 16:31:31 10° NNE
NOAA 6 4.0 16:21:47 10° SSE 16:26:53 68° ENE 16:32:00 10° N
Okean O Rocket 2.2 16:23:01 10° SE 16:26:59 35° ENE 16:31:00 10° N
Cosmos 1782 4.5 16:25:09 10° ESE 16:27:32 16° E 16:29:56 10° NE
Okean-O 4.5 16:27:50 10° ENE 16:29:05 11° NE 16:30:21 10° NE
ISS -3.6 16:26:06 10° W 16:29:27 60° N 16:32:48 10° ENE
Cosmos 1633 Rocket 3.5 16:25:27 10° N 16:29:35 39° ENE 16:33:41 10° SE
H-2A R/B 2.8 16:27:30 10° SSE 16:31:22 86° WSW 16:35:17 10° NNW
Cosmos 1933 4.0 16:29:19 10° SSE 16:32:58 34° E 16:36:42 10° NNE
Spot 2 4.5 16:28:55 10° SSE 16:33:41 88° WSW 16:38:44 10° NNW
Meteor 2-12 Rocket 4.4 16:27:33 10° N 16:33:44 74° ENE 16:39:49 10° SSE
Nadezhda 1 Rocket 4.2 16:28:52 10° S 16:35:15 84° W 16:41:43 10° N
Cosmos 2218 Rocket 4.2 16:30:03 10° N 16:35:57 45° ENE 16:41:49 10° SE
Cosmos 2366 rocket 4.3 16:31:00 10° N 16:36:54 44° ENE 16:42:44 10° SE
Meteor 1-25 Rocket 4.4 16:32:16 10° N 16:37:47 54° ENE 16:43:22 10° SSE
ERS-2 4.0 16:36:12 10° ENE 16:38:03 13° E 16:39:53 10° ESE
Cosmos 1867 3.6 16:33:31 10° SW 16:38:58 85° SE 16:44:27 10° NE
Envisat 3.0 16:38:02 10° SSE 16:43:08 89° WSW 16:48:15 10° NNW
Lacrosse 5 rocket 1.0 16:43:33 10° SW 16:47:12 75° SE 16:50:15 14° ENE
Cosmos 773 Rocket 4.4 16:44:04 10° S 16:49:03 46° ESE 16:54:07 10° NNE
YAOGAN 6 2.6 16:48:32 10° SSE 16:52:10 86° W 16:55:46 10° NNW
Cosmos 2297 4.1 16:47:43 10° NNW 16:53:24 72° WSW 16:59:05 10° SSE
Cosmos 1606 2.8 16:50:43 10° SSW 16:54:37 80° W 16:58:31 10° N
AQUARIUS 4.1 16:52:53 10° SSE 16:57:20 67° ENE 17:01:50 10° N
FengYun 1-2 T 4.3 16:52:01 10° SE 16:57:25 57° ENE 17:02:47 10° N
CZ-4B R/B 2.6 16:56:26 17° ENE 16:57:44 21° E 17:00:15 10° SSE
Landsat 5 3.6 16:54:27 10° NNE 16:58:56 88° ESE 17:03:27 10° SSW
SL-16 R/B 2.2 16:53:19 10° SSW 16:58:57 77° ESE 17:04:39 10° NNE
BREEZE-M DEB (TANK) 3.0 17:00:10 10° SW 17:02:27 29° SSE 17:03:26 19° ESE
Cosmos 1500 4.2 17:01:56 10° NNE 17:05:06 24° ENE 17:08:14 10° SE
SMAP 3.1 17:01:42 10° SSE 17:06:22 89° WSW 17:11:04 10° NNW
Sich 1 4.1 17:02:58 10° NNW 17:07:11 48° W 17:11:20 10° SSW
Cosmos 1656 Rocket 4.1 17:04:06 10° NNW 17:09:26 40° NE 17:14:40 10° ESE
CZ-4C R/B 3.6 17:06:22 10° N 17:09:58 61° WNW 17:13:32 10° SSW
YAOGAN 1 3.8 17:09:19 19° E 17:10:17 20° ENE 17:13:26 10° NNE
Cosmos 1470 Rocket 3.5 17:07:52 10° N 17:12:10 60° ENE 17:16:26 10° SSE
Cosmos 1151 Rocket 2.9 17:08:47 10° S 17:13:02 73° E 17:17:18 10° NNE
CSL-04 DEB 4.4 17:10:28 10° NNE 17:14:38 67° ESE 17:18:51 10° S
Cosmos 864 Rocket 4.5 17:11:37 10° N 17:17:58 81° E 17:24:14 10° SSE
Cosmos 2263 4.2 17:12:50 10° NNW 17:18:24 56° NE 17:23:53 10° SE
Cosmos 1515 Rocket 3.8 17:16:53 10° SSE 17:21:05 46° E 17:25:08 11° NNE
SL-8 Rocket 4.2 17:14:55 10° NNW 17:21:11 78° W 17:27:28 10° S
CZ-2C R/B 3.5 17:17:53 10° SE 17:22:14 32° ENE 17:26:27 10° N
Cosmos 1238 Rocket 3.8 17:20:49 10° NNE 17:24:16 28° ENE 17:28:18 10° SE
TIMED 4.5 17:20:09 10° S 17:24:29 66° ESE 17:27:39 18° NNE
COSMO-SKYMED 1 3.2 17:23:06 21° NE 17:25:24 35° E 17:29:22 10° SSE
TELKOM 3 2.9 17:23:10 10° W 17:25:56 82° N 17:26:18 59° E
X-37B 2.1 17:25:42 10° SW 17:28:27 27° SSE 17:29:28 22° SE
Cosmos 2333 Rocket 4.4 17:25:34 10° WNW 17:28:56 16° NNW 17:32:18 10° N
SAR-Lupe-4 4.5 17:29:13 28° ESE 17:29:13 28° ESE 17:32:09 10° SSE
USA 281 3.5 17:23:09 10° ESE 17:29:19 45° NE 17:35:32 10° NNW
Nadezhda 3 Rocket 4.4 17:24:47 10° SSE 17:30:36 40° E 17:36:27 10° NNE
USA 81 4.3 17:25:30 10° N 17:30:48 74° W 17:36:04 10° S
Cosmos 2219 Rocket 4.4 17:27:29 10° WNW 17:30:53 16° NNW 17:34:18 10° N
Helios 1A Rocket 3.5 17:33:25 32° ENE 17:33:39 33° ENE 17:37:17 10° N
Cosmos 2228 Rocket 3.8 17:29:42 10° SSE 17:33:44 32° E 17:34:29 30° ENE
Meteor 1-4 Rocket 2.4 17:31:23 10° S 17:34:58 86° E 17:37:26 19° NNE
Cosmos 1821 Rocket 4.1 17:30:45 10° N 17:36:53 54° ENE 17:43:03 10° SSE
H-2A R/B 2.7 17:35:17 25° E 17:37:07 31° ENE 17:41:34 10° N
Cosmos 1812 3.8 17:34:07 10° SSE 17:36:35 27° ESE 17:36:35 27° ESE
USA 267 3.4 17:34:11 23° E 17:38:18 58° NNE 17:44:43 10° WNW
Cosmos 1939 Rocket 2.6 17:35:40 10° SSE 17:39:32 75° ENE 17:43:30 10° N
Meteor 1-11 Rocket 4.2 17:34:29 10° N 17:39:52 38° ENE 17:45:18 10° SE
NOSS 3-3 (A) 4.5 17:33:04 10° NW 17:40:20 66° NE 17:47:58 12° ESE
NOSS 3-3 (C) 4.5 17:33:08 10° NW 17:40:26 65° NE 17:47:58 13° ESE
Cosmos 1328 Rocket 3.8 17:36:41 10° SSW 17:41:00 68° WNW 17:45:21 10° N
CZ-4 R/B 4.4 17:37:19 10° SSE 17:41:22 56° ENE 17:45:26 10° N
CZ-4 R/B 1.7 17:41:27 39° E 17:41:50 40° ENE 17:45:40 10° N
Cosmos 44 Rocket 3.4 17:36:52 10° NW 17:42:00 61° NE 17:45:09 23° ESE
Cosmos 1933 Rocket 3.5 17:37:45 10° N 17:42:15 84° E 17:46:43 10° S
BREEZE-M DEB (TANK) 4.3 17:41:13 10° S 17:42:42 12° SSE 17:42:53 12° SSE
CSL-04 Rocket 4.2 17:44:04 32° ENE 17:44:38 32° ENE 17:49:18 10° N
Cosmos 1602 4.4 17:40:56 10° NNW 17:44:48 57° W 17:48:36 10° S
IRS-1C Rocket 4.0 17:40:41 10° SSE 17:45:56 74° ENE 17:51:14 10° NNW
Cosmos 2181 Rocket 4.5 17:42:43 10° SSW 17:49:04 64° WNW 17:55:23 10° N
SL-24 R/B 3.8 17:49:33 50° E 17:49:36 50° E 17:53:10 10° S
Cosmos 1680 Rocket 4.2 17:45:51 10° SSE 17:50:18 32° ESE 17:50:18 32° ESE
Cosmos 2237 Rocket 4.0 17:46:00 10° W 17:50:33 24° NW 17:55:09 10° NNE
Cosmos 1603 3.7 17:49:02 10° S 17:54:33 60° ESE 17:56:56 33° NE
CZ-2D R/B 3.1 17:52:34 10° SSE 17:56:23 81° ENE 18:00:16 10° N
H-2A R/B 3.6 17:53:20 10° N 17:57:08 33° WNW 18:01:00 10° SW
Cosmos 1943 3.2 17:52:25 10° S 17:57:56 57° ESE 17:59:58 37° NE
Cosmos 2369 Rocket 2.7 17:52:30 10° NW 17:58:07 61° WSW 18:03:41 10° SSE
Cosmos 1943 Rocket 3.6 17:54:08 10° NW 17:59:14 38° WSW 18:04:21 10° S
Cosmos 1538 Rocket 4.1 17:54:41 10° SSW 18:00:04 82° WNW 18:03:44 21° NNE
Meteor 1-5 Rocket 4.2 17:54:28 10° N 18:00:26 81° ENE 18:06:12 10° SSE
Cosmos 1371 Rocket 4.1 17:58:20 10° NNW 18:03:22 48° ENE 18:03:40 47° ENE
Okean O Rocket 3.7 17:59:36 10° SSW 18:03:23 29° W 18:07:13 10° NW
Cosmos 1782 3.6 17:59:32 10° SSW 18:03:25 51° WNW 18:06:45 14° N
Okean-O 2.5 18:00:22 10° SSE 18:04:46 71° ENE 18:09:12 10° N
ISS -3.3 18:03:04 10° WNW 18:05:55 58° NW 18:05:55 58° NW
ARGOS 3.7 18:08:32 38° NE 18:08:32 38° NE 18:12:37 10° N
CENTAUR R/B 3.2 18:02:52 10° S 18:07:45 33° ESE 18:07:45 33° ESE
Cosmos 2056 Rocket 3.7 18:04:31 10° NNW 18:09:29 48° NE 18:09:29 48° NE
ERS-2 2.7 18:10:45 37° NNW 18:11:56 57° WNW 18:15:31 10° SSW
SKYMED 2 3.6 18:11:44 34° N 18:13:37 80° WNW 18:17:57 10° SSW
NOSS 3-2 (C) 4.1 18:11:03 10° S 18:15:09 33° SE 18:15:09 33° SE
Cosmos 1869 Rocket 3.4 18:12:29 10° N 18:17:00 81° E 18:17:48 59° SSE
BREEZE-M DEB (TANK) 3.9 18:13:04 10° SW 18:19:59 40° SSE 18:19:59 40° SSE
Cosmos 1624 Rocket 4.0 18:21:09 10° NNW 18:25:56 61° NNE 18:25:56 61° NNE
Lacrosse 5 rocket 2.6 18:23:18 10° W 18:25:53 29° NW 18:25:53 29° NW
Meteor 1-10 Rocket 4.0 18:21:00 10° S 18:26:37 83° ESE 18:28:50 39° NNE
Cosmos 371 Rocket 3.4 18:23:51 10° NNW 18:28:01 61° N 18:28:01 61° N
CZ-4B R/B 3.4 18:29:34 23° NW 18:29:57 23° WNW 18:32:32 10° WSW
NOSS 3-2 (A) 3.2 18:35:29 10° SSW 18:41:11 77° SE 18:41:27 75° E
SL-16 R/B 4.0 18:39:05 10° W 18:43:42 25° NW 18:46:58 16° N
Cosmos 1535 Rocket 4.3 18:38:15 10° N 18:44:24 89° E 18:50:32 10° S
YAOGAN 1 3.3 18:46:29 51° WNW 18:46:29 51° WNW 18:50:18 10° NNW
USA 215 3.1 18:46:42 65° ESE 18:47:06 66° SE 18:53:36 10° SW
MOS 1 Rocket 3.8 18:52:44 67° NNW 18:53:15 73° WNW 18:58:36 10° SSW
USA 238 DEB 3.5 18:53:56 10° SW 19:00:34 87° SE 19:00:35 87° ESE
USA 238 3.5 18:54:02 10° SW 19:00:39 87° SE 19:00:39 87° SE
COSMO-SKYMED 1 4.4 19:00:20 25° NW 19:01:28 29° WNW 19:05:12 10° SW
CZ-2C R/B 4.3 18:57:29 10° SSW 19:02:04 37° W 19:06:32 10° NNW
X-37B 4.2 19:01:43 10° WSW 19:01:44 10° WSW 19:01:44 10° WSW
Cosmos 1934 Rocket 4.4 19:00:01 10° NNW 19:06:18 63° W 19:12:29 10° S
USA 281 4.0 19:07:33 10° S 19:13:49 47° WSW 19:20:09 10° NW
H-2A R/B 3.0 19:15:55 42° WSW 19:16:25 44° W 19:21:19 10° NNW
CZ-4 R/B 3.8 19:17:28 21° W 19:17:28 21° W 19:20:12 10° NW
USA 267 3.3 19:21:32 70° SW 19:21:32 70° SW 19:27:49 10° WNW
CENTAUR R/B 4.0 19:52:09 10° WSW 19:54:58 30° WSW 19:54:58 30° WSW
